Overview Statistics Trail Chart Weather Telemetry Raw packets
 

This is the latest recevied weather packets stored in our database for station/object W5ITZ. If no packets are shown the sender has not sent any weather packets the latest 10 day(s).

<< 96 97 98 99 100 101 102 >>
Time Temp. Humidity Pressure Rain* Wind** Luminosity Snow
1787504074 33.89° C 54% 1016.9 hPa 0 mm - 882 W/m² -
1787503769 33.33° C 53% 1017.2 hPa 0 mm - 864 W/m² -
1787503465 33.89° C 51% 1017.1 hPa 0 mm - 857 W/m² -
1787503309 33.89° C 55% 1017.2 hPa 0 mm - 825 W/m² -
1787502857 32.78° C 58% 1017 hPa 0 mm - 791 W/m² -
1787502551 32.78° C 57% 1017.2 hPa 0 mm - 820 W/m² -
1787502250 32.22° C 58% 1017.2 hPa 0 mm - 809 W/m² -
1787501946 32.78° C 57% 1017.2 hPa 0 mm - 826 W/m² -
1787501643 32.22° C 60% 1017.4 hPa 0 mm - 802 W/m² -
1787501338 31.67° C 59% 1017.4 hPa 0 mm - 778 W/m² -
1787501035 31.67° C 61% 1017.3 hPa 0 mm - 754 W/m² -
1787500730 31.67° C 63% 1017.4 hPa 0 mm - 729 W/m² -
1787500425 31.67° C 62% 1017.4 hPa 0 mm - 646 W/m² -
1787500125 31.67° C 64% 1017.3 hPa 0 mm - 683 W/m² -
1787499819 31.67° C 65% 1017.6 hPa 0 mm - 676 W/m² -
1787499514 31.11° C 66% 1017.5 hPa 0 mm - 651 W/m² -
1787499210 31.11° C 68% 1017.6 hPa 0 mm - 632 W/m² -
1787498604 30.56° C 72% 1017.1 hPa 0 mm - 621 W/m² -
1787498300 30.56° C 75% 1017.1 hPa 0 mm - 605 W/m² -
1787497995 30° C 76% 1017.4 hPa 0 mm - 574 W/m² -
1787497690 29.44° C 76% 1017.4 hPa 0 mm - 497 W/m² -
1787497386 29.44° C 76% 1017.3 hPa 0 mm - 393 W/m² -
1787497085 29.44° C 76% 1017.2 hPa 0 mm - 310 W/m² -
1787496780 29.44° C 77% 1017.3 hPa 0 mm - 350 W/m² -
1787496475 29.44° C 79% 1017.3 hPa 0 mm - 360 W/m² -

* Rain latest hour (hover to see other rain measurements)
** Current wind speed in m/s (hover to see current wind gust speed)